Regional Weather Roundup
Issued by NWS Midland/Odessa, TX

Skip options and go directly to product.
Home | Oldest Version | Previous Version | Current Version | All | Graphics & Text | Save Text | Print | Product List | Glossary On

Skip product version selection by date and time.   
762
ASUS44 KMAF 291410
RWRMAF
MIDLAND AREA WEATHER ROUNDUP
NATIONAL WEATHER SERVICE MIDLAND TX
800 AM CST THU JAN 29 2015

...IN SOUTHWEST TEXAS AND SOUTHEAST NEW MEXICO...

CITY           SKY/WX    TMP DP  RH WIND       PRES   REMARKS
ALPINE         PTCLDY    41  38  91 SW6       30.32R WCI  37
ANDREWS        FAIR      46  34  64 NE14      30.29R WCI  39
ARTESIA        CLOUDY    46  37  71 N22       30.34R WCI  38
BIG SPRING     CLEAR     54  36  50 NE20      30.29R
CARLSBAD       CLOUDY    50  36  58 NW21      30.29R
DRYDEN           N/A     52  40  63 N9        30.17R
FORT STOCKTON  PTCLDY    50  44  80 W9        30.22R
GUAD PASS      MOCLDY    46  31  55 NE28      30.28R WCI  37
HOBBS          CLEAR     45  36  70 N16       30.31R WCI  37
MARFA          PTCLDY    39  37  93 N8        30.28R WCI  34
MIDLAND AIRPK  PTCLDY    50  38  63 NE15      30.27R
MIDLAND INTL   MOCLDY    51  38  60 NE20G28   30.25R
ODESSA         PTCLDY    46  38  73 NE15      30.25R WCI  40
PECOS          PTCLDY    44  38  82 NW7       30.24R WCI  40
PRESIDIO       FAIR      53  45  74 CALM      30.19R
SEMINOLE       CLEAR     44  33  66 NE10      30.32R WCI  39
SNYDER         PTCLDY   N/A N/A N/A N15       30.30R
WINK           PTCLDY    43  37  79 N5        30.22R
$$
...OTHER STATIONS IN TEXAS...

CITY           SKY/WX    TMP DP  RH WIND       PRES   REMARKS
ABILENE        PTCLDY    47  38  71 N8        30.27R
AMARILLO       PTCLDY    42  33  70 N17       30.39R WCI  34
AUSTIN         FOG       55  55 100 S5        30.20R VSB 1/4
BROWNSVILLE    CLEAR     60  59  96 SE5       30.17R
CORPUS CHRISTI MOCLDY    56  55  97 SE6       30.18R
DALLAS FTW     PTCLDY    54  39  57 N12       30.18R
DEL RIO        MOCLDY    50  44  80 W3        30.17R
EL PASO        CLOUDY    51  37  58 N13       30.23R
HOUSTON INT    FOG       58  58 100 CALM      30.21R VSB<1/4
LUBBOCK        MOCLDY    42  33  70 N16       30.34R WCI  34
SAN ANGELO     MOCLDY    50  42  74 SW5       30.21R
SAN ANTONIO    CLOUDY    59  57  93 SW7       30.20R FOG
WACO           CLEAR     49  47  93 S7        30.18R
WICHITA FALLS  NOT AVBL
$$
...OTHER LOCATIONS IN NEW MEXICO...

CITY           SKY/WX    TMP DP  RH WIND       PRES   REMARKS
ALAMAGORDO     MOCLDY    39  34  81 S6        30.24S WCI  35
ALBUQUERQUE    CLOUDY    48  28  46 E20       30.33R
CANNON AFB     MOCLDY    41  32  71 NE22      30.36R WCI  31
CLOVIS         MOCLDY    39  32  75 N18       30.39R WCI  30
HOLLOMAN AFB   NOT AVBL
ROSWELL        CLOUDY    47  34  60 N15       30.35R
RUIDOSO        CLOUDY    37  28  70 S8        30.41R WCI  31
SANTA FE       CLOUDY    38  27  64 S6        30.37R WCI  33
TRUTH OR CONSE CLOUDY    47  33  58 N9        30.26R
TUCUMCARI      PTCLDY    39  32  76 NE7       30.41R WCI  34
$$

USA.gov is the U.S. government's official web portal to all federal, state and local government web resources and services.